| time (UTC) | temp F | wind direction | speed MPH | gust MPH | rain 1hr in | rain 24hr in | rain mn in | humidity % | barometer mb |
| 20260506194527 | 54 | 13 | 3.0 | 3.0 | 0.00 | 0.00 | 0.00 | 55 | 1014.1 |
| 20260506193543 | 54 | 12 | 2.0 | 4.0 | 0.00 | 0.00 | 0.00 | 55 | 1014.0 |
| 20260506192522 | 54 | 131 | 3.0 | 3.0 | 0.00 | 0.00 | 0.00 | 54 | 1013.9 |
| 20260506191523 | 54 | 77 | 3.0 | 4.0 | 0.00 | 0.00 | 0.00 | 54 | 1013.8 |
| 20260506190524 | 54 | 85 | 3.0 | 4.0 | 0.00 | 0.00 | 0.00 | 54 | 1013.7 |
| 20260506185525 | 55 | 140 | 4.0 | 7.0 | 0.00 | 0.00 | 0.00 | 54 | 1013.7 |
| 20260506184515 | 55 | 118 | 3.0 | 5.0 | 0.00 | 0.00 | 0.00 | 53 | 1013.5 |
| 20260506183517 | 56 | 60 | 3.0 | 6.0 | 0.00 | 0.00 | 0.00 | 51 | 1013.3 |
| 20260506182518 | 56 | 118 | 4.0 | 6.0 | 0.00 | 0.00 | 0.00 | 50 | 1013.2 |
| 20260506181520 | 57 | 49 | 4.0 | 5.0 | 0.00 | 0.00 | 0.00 | 50 | 1013.0 |
| 20260506180521 | 57 | 72 | 5.0 | 10.0 | 0.00 | 0.00 | 0.00 | 50 | 1012.9 |
| 20260506175522 | 57 | 75 | 5.0 | 11.0 | 0.00 | 0.00 | 0.00 | 50 | 1012.8 |
| 20260506174546 | 57 | 92 | 4.0 | 6.0 | 0.00 | 0.00 | 0.00 | 51 | 1012.7 |
| 20260506173537 | 57 | 79 | 6.0 | 8.0 | 0.00 | 0.00 | 0.00 | 51 | 1012.5 |
| 20260506172538 | 56 | 57 | 3.0 | 10.0 | 0.00 | 0.00 | 0.00 | 50 | 1012.6 |
| 20260506171517 | 56 | 91 | 3.0 | 6.0 | 0.00 | 0.00 | 0.00 | 50 | 1012.7 |
| 20260506170520 | 56 | 109 | 4.0 | 8.0 | 0.00 | 0.00 | 0.00 | 49 | 1012.5 |
| 20260506165520 | 56 | 57 | 4.0 | 6.0 | 0.00 | 0.00 | 0.00 | 47 | 1012.5 |
| 20260506164521 | 57 | 85 | 3.0 | 7.0 | 0.00 | 0.00 | 0.00 | 45 | 1012.5 |
| 20260506163523 | 57 | 64 | 4.0 | 7.0 | 0.00 | 0.00 | 0.00 | 44 | 1012.6 |
| 20260506162546 | 57 | 98 | 3.0 | 7.0 | 0.00 | 0.00 | 0.00 | 43 | 1012.6 |
| 20260506161544 | 57 | 86 | 2.0 | 5.0 | 0.00 | 0.00 | 0.00 | 41 | 1012.5 |
| 20260506160523 | 57 | 108 | 3.0 | 7.0 | 0.00 | 0.00 | 0.00 | 40 | 1012.5 |
| 20260506155543 | 58 | 74 | 4.0 | 7.0 | 0.00 | 0.00 | 0.00 | 39 | 1012.5 |
| 20260506154524 | 58 | 59 | 3.0 | 5.0 | 0.00 | 0.00 | 0.00 | 39 | 1012.5 |
| 20260506153525 | 58 | 88 | 2.0 | 6.0 | 0.00 | 0.00 | 0.00 | 38 | 1012.6 |
| 20260506152525 | 59 | 143 | 4.0 | 5.0 | 0.00 | 0.00 | 0.00 | 41 | 1012.5 |
| 20260506151516 | 59 | 71 | 4.0 | 12.0 | 0.00 | 0.00 | 0.00 | 42 | 1012.3 |
| 20260506150517 | 60 | 72 | 3.0 | 5.0 | 0.00 | 0.00 | 0.00 | 46 | 1012.3 |
| 20260506145521 | 60 | 100 | 3.0 | 5.0 | 0.00 | 0.00 | 0.00 | 46 | 1012.3 |
| 20260506144522 | 60 | 61 | 4.0 | 7.0 | 0.00 | 0.00 | 0.00 | 42 | 1012.2 |
| 20260506143525 | 60 | 68 | 5.0 | 6.0 | 0.00 | 0.00 | 0.00 | 34 | 1012.2 |
| 20260506142516 | 61 | 68 | 6.0 | 10.0 | 0.00 | 0.00 | 0.00 | 33 | 1012.2 |
| 20260506141524 | 61 | 82 | 6.0 | 9.0 | 0.00 | 0.00 | 0.00 | 33 | 1012.2 |
| 20260506140515 | 61 | 96 | 6.0 | 13.0 | 0.00 | 0.00 | 0.00 | 32 | 1012.1 |
| 20260506135517 | 61 | 69 | 6.0 | 9.0 | 0.00 | 0.00 | 0.00 | 32 | 1012.1 |
| 20260506134541 | 62 | 73 | 6.0 | 10.0 | 0.00 | 0.00 | 0.00 | 32 | 1012.0 |
| 20260506133523 | 62 | 88 | 5.0 | 11.0 | 0.00 | 0.00 | 0.00 | 32 | 1011.9 |
| 20260506132525 | 61 | 96 | 6.0 | 8.0 | 0.00 | 0.00 | 0.00 | 32 | 1011.9 |
| 20260506131527 | 61 | 40 | 5.0 | 11.0 | 0.00 | 0.00 | 0.00 | 32 | 1012.0 |
| 20260506130516 | 61 | 112 | 6.0 | 8.0 | 0.00 | 0.00 | 0.00 | 32 | 1011.8 |
| 20260506125517 | 61 | 106 | 6.0 | 10.0 | 0.00 | 0.00 | 0.00 | 33 | 1011.7 |
| 20260506124518 | 61 | 76 | 6.0 | 14.0 | 0.00 | 0.00 | 0.00 | 33 | 1011.8 |
| 20260506123541 | 61 | 29 | 6.0 | 10.0 | 0.00 | 0.00 | 0.00 | 34 | 1011.9 |
| 20260506122521 | 62 | 90 | 6.0 | 11.0 | 0.00 | 0.00 | 0.00 | 33 | 1011.6 |
| 20260506121522 | 62 | 75 | 6.0 | 11.0 | 0.00 | 0.00 | 0.00 | 33 | 1011.4 |
| 20260506120523 | 61 | 126 | 6.0 | 13.0 | 0.00 | 0.00 | 0.00 | 34 | 1011.4 |
| 20260506115523 | 61 | 67 | 7.0 | 11.0 | 0.00 | 0.00 | 0.00 | 33 | 1011.5 |
| 20260506114523 | 60 | 79 | 6.0 | 12.0 | 0.00 | 0.00 | 0.00 | 33 | 1011.5 |
| 20260506113526 | 60 | 91 | 5.0 | 7.0 | 0.00 | 0.00 | 0.00 | 41 | 1011.5 |
| 20260506112536 | 60 | 72 | 5.0 | 8.0 | 0.00 | 0.00 | 0.00 | 42 | 1011.6 |
| 20260506111518 | 60 | 50 | 4.0 | 11.0 | 0.00 | 0.00 | 0.00 | 44 | 1011.7 |
| 20260506110518 | 60 | 108 | 4.0 | 8.0 | 0.00 | 0.00 | 0.00 | 44 | 1011.5 |
| 20260506105520 | 60 | 107 | 5.0 | 7.0 | 0.00 | 0.00 | 0.00 | 46 | 1011.3 |
| 20260506104519 | 60 | 89 | 4.0 | 6.0 | 0.00 | 0.00 | 0.00 | 47 | 1011.2 |
| 20260506103521 | 59 | 38 | 4.0 | 11.0 | 0.00 | 0.00 | 0.00 | 50 | 1011.2 |
| 20260506102524 | 59 | 118 | 5.0 | 8.0 | 0.00 | 0.00 | 0.00 | 52 | 1011.2 |
| 20260506101525 | 59 | 71 | 5.0 | 14.0 | 0.00 | 0.00 | 0.00 | 51 | 1011.3 |
| 20260506100525 | 58 | 147 | 4.0 | 7.0 | 0.00 | 0.00 | 0.00 | 53 | 1011.1 |
| 20260506095516 | 58 | 127 | 4.0 | 6.0 | 0.00 | 0.00 | 0.00 | 53 | 1011.0 |
| 20260506094528 | 58 | 96 | 4.0 | 9.0 | 0.00 | 0.00 | 0.00 | 52 | 1010.9 |
| 20260506093527 | 58 | 64 | 3.0 | 9.0 | 0.00 | 0.00 | 0.00 | 53 | 1010.8 |
| 20260506092601 | 58 | 68 | 3.0 | 4.0 | 0.00 | 0.00 | 0.00 | 54 | 1010.7 |
| 20260506091519 | 58 | 72 | 4.0 | 8.0 | 0.00 | 0.00 | 0.00 | 53 | 1010.7 |
| 20260506090519 | 57 | 34 | 5.0 | 11.0 | 0.00 | 0.00 | 0.00 | 54 | 1010.7 |
| 20260506085521 | 57 | 79 | 6.0 | 11.0 | 0.00 | 0.00 | 0.00 | 54 | 1010.7 |
| 20260506084519 | 57 | 107 | 5.0 | 7.0 | 0.00 | 0.00 | 0.00 | 55 | 1010.6 |
| 20260506083519 | 57 | 143 | 6.0 | 13.0 | 0.00 | 0.00 | 0.00 | 56 | 1010.6 |
| 20260506082541 | 57 | 63 | 4.0 | 8.0 | 0.00 | 0.00 | 0.00 | 57 | 1010.6 |
| 20260506081520 | 57 | 108 | 3.0 | 6.0 | 0.00 | 0.00 | 0.00 | 59 | 1010.7 |
| 20260506080523 | 57 | 80 | 4.0 | 11.0 | 0.00 | 0.00 | 0.00 | 62 | 1010.6 |
| 20260506072520 | 55 | 76 | 5.0 | 7.0 | 0.00 | 0.00 | 0.00 | 67 | 1010.6 |
| 20260506071521 | 55 | 11 | 3.0 | 9.0 | 0.00 | 0.00 | 0.00 | 68 | 1010.5 |
| 20260506070524 | 54 | 77 | 3.0 | 7.0 | 0.00 | 0.00 | 0.00 | 68 | 1010.4 |
| 20260506061518 | 53 | 268 | 3.0 | 4.0 | 0.00 | 0.00 | 0.00 | 71 | 1010.0 |
| 20260506060521 | 52 | 25 | 3.0 | 8.0 | 0.00 | 0.00 | 0.00 | 71 | 1009.9 |
| 20260506050516 | 51 | 49 | 2.0 | 5.0 | 0.00 | 0.00 | 0.00 | 74 | 1010.3 |
| 20260506044527 | 50 | 351 | 2.0 | 5.0 | 0.00 | 0.00 | 0.00 | 74 | 1010.3 |
| 20260506043526 | 50 | 24 | 2.0 | 5.0 | 0.00 | 0.00 | 0.00 | 74 | 1010.2 |
| 20260506042516 | 50 | 76 | 2.0 | 4.0 | 0.00 | 0.00 | 0.00 | 74 | 1010.4 |
| 20260506041517 | 50 | 110 | 2.0 | 5.0 | 0.00 | 0.00 | 0.00 | 73 | 1010.5 |
| 20260506040517 | 50 | 357 | 2.0 | 6.0 | 0.00 | 0.00 | 0.00 | 73 | 1010.5 |
| 20260506035520 | 50 | 24 | 2.0 | 4.0 | 0.00 | 0.00 | 0.00 | 73 | 1010.5 |
| 20260506034542 | 50 | 73 | 1.0 | 5.0 | 0.00 | 0.00 | 0.00 | 73 | 1010.5 |
| 20260506033522 | 50 | 172 | 1.0 | 4.0 | 0.00 | 0.00 | 0.00 | 73 | 1010.5 |
| 20260506032524 | 50 | 86 | 1.0 | 3.0 | 0.00 | 0.00 | 0.00 | 72 | 1010.6 |
| 20260506031526 | 50 | 95 | 1.0 | 2.0 | 0.00 | 0.00 | 0.00 | 72 | 1010.7 |
| 20260506030537 | 50 | 55 | 2.0 | 5.0 | 0.00 | 0.00 | 0.00 | 73 | 1010.7 |
| 20260506025518 | 50 | 80 | 2.0 | 7.0 | 0.00 | 0.00 | 0.00 | 73 | 1010.7 |
| 20260506024530 | 49 | 39 | 2.0 | 4.0 | 0.00 | 0.00 | 0.00 | 73 | 1010.9 |
| 20260506023542 | 49 | 254 | 1.0 | 4.0 | 0.00 | 0.00 | 0.00 | 73 | 1011.0 |
| 20260506022525 | 49 | 32 | 2.0 | 3.0 | 0.00 | 0.00 | 0.00 | 73 | 1011.0 |
| 20260506021516 | 49 | 22 | 1.0 | 3.0 | 0.00 | 0.00 | 0.00 | 73 | 1011.0 |
| 20260506020558 | 49 | 106 | 1.0 | 3.0 | 0.00 | 0.00 | 0.00 | 73 | 1011.1 |
| 20260506015529 | 49 | 29 | 1.0 | 4.0 | 0.00 | 0.00 | 0.00 | 73 | 1011.2 |
| 20260506014517 | 49 | 320 | 2.0 | 3.0 | 0.00 | 0.00 | 0.00 | 73 | 1011.2 |
| 20260506013517 | 49 | 9 | 2.0 | 5.0 | 0.00 | 0.00 | 0.00 | 73 | 1011.2 |
| 20260506012518 | 49 | 22 | 1.0 | 4.0 | 0.00 | 0.00 | 0.00 | 73 | 1011.3 |
| 20260506011520 | 48 | 100 | 1.0 | 2.0 | 0.00 | 0.00 | 0.00 | 73 | 1011.4 |
| 20260506010515 | 48 | 29 | 1.0 | 4.0 | 0.00 | 0.00 | 0.00 | 73 | 1011.6 |
| 20260506005517 | 48 | 21 | 1.0 | 3.0 | 0.00 | 0.00 | 0.00 | 73 | 1011.7 |
| 20260506004519 | 48 | 121 | 1.0 | 4.0 | 0.00 | 0.00 | 0.00 | 73 | 1011.9 |
| 20260506003542 | 48 | 158 | 2.0 | 6.0 | 0.00 | 0.00 | 0.00 | 72 | 1012.0 |
| 20260506002525 | 48 | 83 | 1.0 | 3.0 | 0.00 | 0.00 | 0.00 | 72 | 1012.0 |
| 20260506001526 | 48 | 192 | 1.0 | 4.0 | 0.00 | 0.00 | 0.00 | 71 | 1012.0 |
| 20260506000525 | 48 | 69 | 2.0 | 3.0 | 0.00 | 0.00 | 0.00 | 70 | 1012.0 |
| 20260505235525 | 48 | 29 | 1.0 | 2.0 | 0.00 | 0.00 | 0.00 | 70 | 1012.1 |
| 20260505234517 | 48 | 109 | 2.0 | 5.0 | 0.00 | 0.00 | 0.00 | 70 | 1012.3 |
| 20260505233518 | 47 | 33 | 1.0 | 3.0 | 0.00 | 0.00 | 0.00 | 69 | 1012.5 |
| 20260505232521 | 48 | 68 | 2.0 | 5.0 | 0.00 | 0.00 | 0.00 | 69 | 1012.6 |
| 20260505231520 | 48 | 360 | 1.0 | 5.0 | 0.00 | 0.00 | 0.00 | 68 | 1012.7 |
| 20260505230542 | 48 | 142 | 1.0 | 2.0 | 0.00 | 0.00 | 0.00 | 68 | 1012.7 |
| 20260505225523 | 48 | 332 | 1.0 | 5.0 | 0.00 | 0.00 | 0.00 | 67 | 1012.7 |
| 20260505224524 | 48 | 102 | 1.0 | 3.0 | 0.00 | 0.00 | 0.00 | 67 | 1012.8 |
| 20260505223515 | 48 | 79 | 2.0 | 4.0 | 0.00 | 0.00 | 0.00 | 66 | 1012.8 |
| 20260505222538 | 48 | 55 | 1.0 | 4.0 | 0.00 | 0.00 | 0.00 | 66 | 1012.9 |
| 20260505221520 | 48 | 134 | 1.0 | 5.0 | 0.00 | 0.00 | 0.00 | 66 | 1013.0 |
| 20260505220519 | 49 | 19 | 1.0 | 3.0 | 0.00 | 0.00 | 0.00 | 65 | 1013.1 |
| 20260505215539 | 49 | 139 | 1.0 | 3.0 | 0.00 | 0.00 | 0.00 | 65 | 1013.1 |
| 20260505214516 | 49 | 52 | 1.0 | 1.0 | 0.00 | 0.00 | 0.00 | 65 | 1013.2 |
| 20260505213541 | 49 | 323 | 0.0 | 4.0 | 0.00 | 0.00 | 0.00 | 64 | 1013.3 |
| 20260505212519 | 49 | 46 | 1.0 | 1.0 | 0.00 | 0.00 | 0.00 | 64 | 1013.4 |
| 20260505211530 | 50 | 108 | 1.0 | 3.0 | 0.00 | 0.00 | 0.00 | 64 | 1013.5 |
| 20260505210516 | 50 | 24 | 1.0 | 3.0 | 0.00 | 0.00 | 0.00 | 64 | 1013.6 |
| 20260505205518 | 50 | 95 | 1.0 | 3.0 | 0.00 | 0.00 | 0.00 | 63 | 1013.8 |
| 20260505204518 | 50 | 118 | 2.0 | 4.0 | 0.00 | 0.00 | 0.00 | 63 | 1013.7 |
| 20260505203539 | 50 | 42 | 2.0 | 4.0 | 0.00 | 0.00 | 0.00 | 63 | 1013.6 |
| 20260505202524 | 50 | 12 | 2.0 | 5.0 | 0.00 | 0.00 | 0.00 | 63 | 1013.5 |
| 20260505201526 | 50 | 16 | 2.0 | 5.0 | 0.00 | 0.00 | 0.00 | 63 | 1013.5 |
| 20260505200525 | 50 | 55 | 2.0 | 4.0 | 0.00 | 0.00 | 0.00 | 62 | 1013.6 |
| 20260505195526 | 51 | 34 | 2.0 | 3.0 | 0.00 | 0.00 | 0.00 | 62 | 1013.6 |